Regional Weather Roundup
Issued by NWS Northern Indiana

Home | Current Version | Previous Version | Text Only | Print | Product List | Glossary On
Versions: 1 2 3 4 5 6 7 8 9 10 11 12 13 14 15 16 17 18 19 20 21 22 23 24 25 26 27 28 29 30 31 32 33 34 35 36 37 38 39 40 41 42 43 44 45 46 47 48 49 50
000
ASUS43 KIWX 241400
RWRIWX

KIWX WEATHER ROUNDUP
NATIONAL WEATHER SERVICE NORTHERN INDIANA
1000 AM EDT SUN MAY 24 2015

NOTE: "FAIR" INDICATES FEW OR NO CLOUDS BELOW 12,000 FEET WITH NO
SIGNIFICANT WEATHER AND/OR OBSTRUCTIONS TO VISIBILITY.

* THESE STATIONS ARE NOT UNDER NWS QUALITY CONTROL. THEY ALSO MAY NOT
  REPORT WEATHER SUCH AS PRECIPITATION OR FOG.

INZ001>027-241500-
NORTHERN INDIANA

CITY           SKY/WX    TMP DP  RH WIND       PRES   REMARKS
GARY*          CLOUDY    66  52  59 SE7       30.20S
SOUTH BEND     PTSUNNY   69  50  50 S8        30.22S
GOSHEN         PTSUNNY   72  53  51 S12       30.22F
ANGOLA*        SUNNY     70  54  56 S7        30.25S
FORT WAYNE     PTSUNNY   69  51  52 S13       30.26S

$$
INZ028>050-241500-
CENTRAL INDIANA

CITY           SKY/WX    TMP DP  RH WIND       PRES   REMARKS
LAFAYETTE      CLOUDY    68  55  63 SE3       30.19F
KOKOMO*        CLOUDY    66  54  63 S13       30.24S
MUNCIE*        CLOUDY    70  52  52 S10       30.26R
INDIANAPOLIS   PTSUNNY   69  53  56 S9        30.22S

$$
MIZ043>046-050>051-056>058-064>065-071>073-077>080-241500-
SOUTHWEST LOWER MICHIGAN

CITY           SKY/WX    TMP DP  RH WIND       PRES   REMARKS
BATTLE CREEK   PTSUNNY   69  50  50 S9        30.24F
BENTON HARBOR  CLOUDY    64  51  62 SE5       30.20S
COLDWATER*     CLOUDY    67  50  55 S7        30.25S
HILLSDALE*     PTSUNNY   70  48  45 S8        30.26F
HOLLAND        PTSUNNY   66  52  60 S5        30.21F
GRAND RAPIDS   CLOUDY    71  50  47 S7        30.21F
KALAMAZOO      CLOUDY    67  51  56 S8        30.23F
STURGIS*       CLOUDY    70  52  52 S8        30.23S
THREE RIVERS*  FAIR      69  52  54 S10       30.24S

$$
OHZ001>008-015>018-024>025-241500-
NORTHWEST OHIO

CITY           SKY/WX    TMP DP  RH WIND       PRES   REMARKS
DEFIANCE       PTSUNNY   72  49  44 S12       30.26F
FINDLAY        MOSUNNY   74  49  41 S12       30.27F
TOLEDO EXPRESS MOSUNNY   72  49  44 SW5       30.27F
TOLEDO METCALF MOSUNNY   73  47  39 S9        30.28F
LIMA           SUNNY     72  49  44 S13       30.28F

$$
AND FOR LAKE MICHIGAN COASTAL AND OPEN LAKE BUOY OBSERVATIONS

STATION/POSITION TEMP    WIND        PRES    VSBY  WAVE
                 AIR SEA DIR/SP/G                  HT/PER
                 (F)     (DEG/KT/KT) (MB)    (MI)  (FT/S)
CALUMET HARBOR    62      60/  1/  2   N/A
MICHIGAN CITY     66     120/  9/ 12   N/A
BURNS HARBOR      68     180/  8/ 12 1023.0S
SAINT JOSEPH      65     130/  2/  5 1023.4F
SOUTH LAKE BUOY   47     160/  8/  8 1022.8F
4 MI NW BRIDGMAN  60 54  190/  6/  8   N/A           1
MICHIGAN CITY     61 53  180/  6/  8   N/A           1
MICHIGAN CITY CG     61              1024.6   3 1/2  1

$$
&&


USA.gov is the U.S. government's official web portal to all federal, state and local government web resources and services.